Stations météo

réclame
Mon MeteoGroup
Vlieland, Pays-Bas (6242): Température de l'air & dewpoint: 15.01.2019 17:00:00 - 21.01.2019 17:00:00 (CET)Vlieland, Pays-Bas (6242): Température de l'air 5cm: 15.01.2019 17:00:00 - 21.01.2019 17:00:00 (CET)Vlieland, Pays-Bas (6242): Vitesse du vent & gusts: 15.01.2019 17:00:00 - 21.01.2019 17:00:00 (CET)Vlieland, Pays-Bas (6242): Direction du vent: 15.01.2019 17:00:00 - 21.01.2019 17:00:00 (CET)Vlieland, Pays-Bas (6242): reduced air pressure: 15.01.2019 17:00:00 - 21.01.2019 17:00:00 (CET)Vlieland, Pays-Bas (6242): visibility: 15.01.2019 17:00:00 - 21.01.2019 17:00:00 (CET)
Date & Time tt [°C] td [°C] tt 5cm [°C] ff [km/h] ff [knt] fx [km/h] fx [knt] dd ppp [hPa] vv [km]
21.01.2019 17:00:00 4,0 1,0 2,1 5 3 - - WSW 1018,4 10
21.01.2019 16:00:00 5,2 2,7 4,5 11 6 18 10 WSW 1018,9 10
21.01.2019 15:00:00 5,9 3,7 6,1 11 6 14 8 W 1019,7 10
21.01.2019 14:00:00 6,5 3,8 7,7 11 6 14 8 W 1020,2 10
21.01.2019 13:00:00 6,7 4,1 8,0 8 4 11 6 W 1020,9 10
21.01.2019 12:00:00 6,1 4,5 7,1 5 3 11 6 WSW 1021,3 10
21.01.2019 11:00:00 4,5 3,9 4,8 5 3 11 6 WSW 1021,8 10
21.01.2019 10:00:00 3,8 3,0 3,5 13 7 29 16 W 1021,8 9
21.01.2019 09:00:00 3,9 1,7 3,1 15 8 22 12 WSW 1022,0 10
21.01.2019 08:00:00 3,7 1,3 2,4 16 9 22 12 W 1021,9 10
21.01.2019 07:00:00 3,0 0,6 1,6 16 9 22 12 W 1021,8 10
21.01.2019 06:00:00 0,8 0,0 -1,9 18 10 22 12 W 1022,1 10
21.01.2019 05:00:00 -1,0 -1,7 -1,9 16 9 18 10 SSW 1022,2 6
21.01.2019 04:00:00 -1,5 -2,4 -2,2 15 8 18 10 SSW 1022,4 8
21.01.2019 03:00:00 -1,3 -2,1 -2,8 13 7 14 8 SSW 1022,8 6
21.01.2019 02:00:00 -1,9 -2,6 -3,9 13 7 14 8 S 1022,9 8
21.01.2019 01:00:00 -5,6 -6,4 -8,2 9 5 11 6 S 1023,1 10
21.01.2019 00:00:00 -5,9 -6,6 -8,6 8 4 7 4 S 1023,0 9
20.01.2019 23:00:00 -4,6 -4,8 -8,1 5 3 7 4 S 1022,6 10
20.01.2019 22:00:00 -5,4 -5,9 -7,9 5 3 7 4 SE 1022,3 10
20.01.2019 21:00:00 -4,6 -5,0 -7,3 5 3 7 4 SE 1022,2 6
20.01.2019 20:00:00 -3,9 -4,4 -6,1 2 1 7 4 - 1021,9 10
20.01.2019 19:00:00 -2,6 -4,0 -4,6 5 3 11 6 E 1021,2 10
20.01.2019 18:00:00 -1,5 -4,2 -2,8 8 4 11 6 E 1020,7 10
20.01.2019 17:00:00 0,7 -3,4 0,2 11 6 14 8 E 1020,3 10
20.01.2019 16:00:00 1,5 -3,8 1,4 8 4 11 6 E 1019,6 10
20.01.2019 15:00:00 1,7 -5,3 1,8 9 5 11 6 E 1019,6 10
20.01.2019 14:00:00 1,3 -3,9 1,4 4 2 7 4 E 1019,6 10
20.01.2019 13:00:00 1,6 -3,2 2,1 4 2 11 6 ESE 1019,5 10
20.01.2019 12:00:00 0,9 -1,8 0,7 9 5 14 8 SE 1019,3 10
20.01.2019 11:00:00 0,6 -2,1 0,6 13 7 14 8 ESE 1018,8 10
20.01.2019 10:00:00 0,4 -1,1 -1,0 11 6 14 8 E 1018,2 10
20.01.2019 09:00:00 -4,2 -4,6 -7,3 11 6 14 8 ESE 1017,4 10
20.01.2019 08:00:00 -4,3 -5,1 -7,0 11 6 14 8 E 1016,8 10
20.01.2019 07:00:00 -3,8 -4,8 -5,4 11 6 14 8 E 1016,4 10
20.01.2019 06:00:00 -3,7 -4,9 -5,8 13 7 14 8 ESE 1016,0 10
20.01.2019 05:00:00 -3,5 -4,3 -4,9 13 7 18 10 ESE 1016,0 10
20.01.2019 04:00:00 -2,8 -3,7 -3,7 15 8 18 10 ESE 1015,9 10
20.01.2019 03:00:00 -2,2 -3,4 -2,9 16 9 18 10 ESE 1015,7 10
20.01.2019 02:00:00 -1,1 -3,1 -1,8 16 9 22 12 SE 1015,6 10
20.01.2019 01:00:00 -0,9 -3,2 -1,5 21 11 25 14 SE 1015,5 10
20.01.2019 00:00:00 -0,5 -3,2 -1,1 24 13 29 16 SE 1015,3 10
19.01.2019 23:00:00 -0,4 -3,3 -0,8 26 14 32 18 SE 1015,2 10
19.01.2019 22:00:00 0,0 -3,5 -0,5 31 17 36 19 SE 1015,2 10
19.01.2019 21:00:00 0,2 -3,0 -0,3 29 16 36 19 SE 1014,9 10
19.01.2019 20:00:00 0,3 -2,7 -0,2 28 15 36 19 SE 1014,7 10
19.01.2019 19:00:00 0,7 -2,5 0,1 29 16 36 19 SE 1014,7 10
19.01.2019 18:00:00 0,8 -2,2 0,4 28 15 32 18 SE 1014,7 10
19.01.2019 17:00:00 0,9 -1,8 0,5 26 14 32 18 SE 1014,7 10
19.01.2019 16:00:00 1,7 -1,2 1,7 24 13 32 18 SE 1014,6 10
19.01.2019 15:00:00 2,6 -0,8 3,0 28 15 36 19 SSE 1015,0 10
19.01.2019 14:00:00 2,7 -0,5 3,2 29 16 36 19 SE 1015,5 10
19.01.2019 13:00:00 2,8 -0,7 3,6 28 15 32 18 SSE 1016,0 10
19.01.2019 12:00:00 2,7 -1,0 3,4 26 14 32 18 SSE 1016,5 10
19.01.2019 11:00:00 2,0 -0,9 1,8 24 13 32 18 SSE 1016,8 10
19.01.2019 10:00:00 1,0 -0,9 0,3 24 13 32 18 SSE 1016,7 9
19.01.2019 09:00:00 -0,1 -1,1 -0,7 22 12 29 16 S 1016,7 5
19.01.2019 08:00:00 -0,1 -0,6 -0,4 22 12 32 18 S 1016,8 4,1
19.01.2019 07:00:00 -0,4 -0,7 -0,5 21 11 25 14 S 1016,7 3,0
19.01.2019 06:00:00 -0,3 -0,5 -0,5 18 10 25 14 S 1016,7 3,2
19.01.2019 05:00:00 -0,3 -0,7 -0,4 22 12 29 16 S 1017,3 2,3
19.01.2019 04:00:00 0,5 -0,8 -0,2 18 10 25 14 S 1017,2 9
19.01.2019 03:00:00 0,6 -1,2 -0,1 16 9 25 14 S 1017,5 10
19.01.2019 02:00:00 0,7 -1,3 -0,1 16 9 22 12 S 1017,8 10
19.01.2019 01:00:00 0,9 -1,1 0,0 15 8 22 12 S 1018,2 10
19.01.2019 00:00:00 1,3 -1,0 0,5 15 8 22 12 S 1018,3 10
18.01.2019 23:00:00 1,7 -0,5 1,1 16 9 22 12 S 1018,5 10
18.01.2019 22:00:00 1,8 -0,3 1,1 18 10 25 14 S 1018,6 10
18.01.2019 21:00:00 2,6 -0,1 1,9 21 11 29 16 S 1018,4 10
18.01.2019 20:00:00 2,9 0,7 2,3 22 12 29 16 S 1018,3 10
18.01.2019 19:00:00 2,8 0,6 1,9 18 10 25 14 SSW 1018,3 10
18.01.2019 18:00:00 3,4 1,1 2,5 21 11 25 14 SSW 1018,3 10
18.01.2019 17:00:00 3,7 1,4 3,2 11 6 18 10 ESE 1018,4 10
18.01.2019 16:00:00 5,1 1,7 4,6 5 3 32 18 WSW 1018,4 10
18.01.2019 15:00:00 5,9 0,6 6,1 2 1 7 4 - 1018,6 10
18.01.2019 14:00:00 5,6 1,5 6,4 9 5 18 10 N 1018,6 10
18.01.2019 13:00:00 6,4 0,7 7,2 15 8 22 12 WNW 1018,7 10
18.01.2019 12:00:00 6,0 1,3 6,6 13 7 25 14 W 1018,7 10
18.01.2019 11:00:00 5,3 0,9 5,1 11 6 36 19 NW 1018,6 10
18.01.2019 10:00:00 5,5 1,4 5,3 15 8 32 18 NW 1018,3 10
18.01.2019 09:00:00 5,4 -0,8 4,5 22 12 29 16 W 1017,7 10
18.01.2019 08:00:00 5,2 -0,5 4,2 18 10 29 16 WNW 1017,0 10
18.01.2019 07:00:00 5,3 -1,0 4,2 21 11 29 16 NW 1016,8 10
18.01.2019 06:00:00 4,9 -1,3 3,7 11 6 22 12 W 1016,3 9
18.01.2019 05:00:00 4,5 -1,3 2,9 13 7 22 12 NW 1016,3 10
18.01.2019 04:00:00 4,5 -2,1 2,7 13 7 22 12 NNW 1015,9 10
18.01.2019 03:00:00 4,4 -3,1 3,1 16 9 29 16 NNW 1015,5 10
18.01.2019 02:00:00 3,9 -1,5 2,8 21 11 32 18 NNE 1014,8 10
18.01.2019 01:00:00 4,3 -1,8 3,6 28 15 40 21 NNE 1014,2 10
18.01.2019 00:00:00 5,1 -1,5 4,0 31 17 47 25 N 1013,1 10
17.01.2019 23:00:00 5,0 -2,0 4,2 39 21 50 27 N 1012,0 10
17.01.2019 22:00:00 5,0 -0,2 4,2 46 25 65 35 N 1010,4 10
17.01.2019 21:00:00 4,6 0,2 3,7 52 28 79 43 NNW 1009,4 10
17.01.2019 20:00:00 3,9 0,6 3,7 42 23 76 41 N 1008,8 10
17.01.2019 19:00:00 4,8 -0,2 3,7 41 22 76 41 NNW 1006,7 10
17.01.2019 18:00:00 4,4 -0,3 3,7 41 22 68 37 NNW 1005,8 10
17.01.2019 17:00:00 4,2 -0,1 3,4 52 28 79 43 NNW 1005,1 10
17.01.2019 16:00:00 4,4 -0,6 3,9 44 24 61 33 NNW 1003,5 10
17.01.2019 15:00:00 3,2 0,4 3,3 44 24 61 33 NW 1002,3 10
17.01.2019 14:00:00 4,2 0,3 4,2 44 24 58 31 NW 1001,2 10
17.01.2019 13:00:00 5,7 0,6 5,7 42 23 58 31 NW 1000,4 10
17.01.2019 12:00:00 3,8 1,7 2,5 48 26 68 37 WNW 1000,4 10
17.01.2019 11:00:00 4,7 -0,2 4,3 42 23 68 37 NW 999,9 10
17.01.2019 10:00:00 4,4 2,8 3,9 44 24 65 35 NNW 999,1 9
17.01.2019 09:00:00 3,9 2,5 3,9 42 23 58 31 NW 998,2 5
17.01.2019 08:00:00 6,1 2,7 5,8 46 25 65 35 W 997,3 10
17.01.2019 07:00:00 6,1 1,6 5,6 44 24 58 31 W 997,2 10
17.01.2019 06:00:00 6,0 1,9 5,5 46 25 54 29 W 997,1 10
17.01.2019 05:00:00 5,8 2,0 5,4 48 26 65 35 W 997,5 10
17.01.2019 04:00:00 6,4 2,8 6,1 46 25 58 31 W 997,9 10
17.01.2019 03:00:00 6,2 3,0 5,6 46 25 58 31 W 998,0 10
17.01.2019 02:00:00 6,2 3,3 5,8 46 25 54 29 W 997,9 10
17.01.2019 01:00:00 6,5 3,3 6,0 44 24 54 29 W 998,0 10
17.01.2019 00:00:00 6,4 3,6 5,9 46 25 58 31 W 997,8 10
16.01.2019 23:00:00 6,0 2,9 5,2 26 14 50 27 WSW 997,6 10
16.01.2019 22:00:00 5,3 3,9 5,0 35 19 50 27 WNW 998,4 6
16.01.2019 21:00:00 5,8 4,9 5,5 34 18 65 35 WNW 997,9 10
16.01.2019 20:00:00 6,6 6,0 6,5 54 29 72 39 SW 996,8 4,8
16.01.2019 19:00:00 6,6 6,0 6,5 55 30 72 39 SW 997,4 6
16.01.2019 18:00:00 6,7 6,1 6,6 55 30 68 37 SW 998,4 3,0
16.01.2019 17:00:00 6,9 6,4 6,8 55 30 68 37 SW 999,3 3,2
16.01.2019 16:00:00 7,1 6,6 7,0 57 31 72 39 SW 999,9 3,8
16.01.2019 15:00:00 7,1 6,6 7,0 55 30 72 39 SW 1000,6 3,9
16.01.2019 14:00:00 7,0 6,6 6,9 55 30 68 37 SW 1001,6 3,4
16.01.2019 13:00:00 7,3 6,8 7,3 54 29 65 35 SW 1002,3 5
16.01.2019 12:00:00 7,7 7,0 7,6 52 28 61 33 SW 1003,3 8
16.01.2019 11:00:00 7,8 7,4 7,7 50 27 58 31 SW 1004,3 2,9
16.01.2019 10:00:00 7,8 7,4 7,7 44 24 54 29 SW 1004,9 3,4
16.01.2019 09:00:00 8,0 7,0 7,9 42 23 58 31 SW 1005,2 3,1
16.01.2019 08:00:00 8,1 6,8 7,9 44 24 50 27 SW 1005,5 10
16.01.2019 07:00:00 7,9 6,5 7,8 37 20 54 29 SW 1005,9 10
16.01.2019 06:00:00 8,1 6,2 7,9 41 22 50 27 WSW 1006,4 10
16.01.2019 05:00:00 8,1 6,4 7,9 42 23 50 27 WSW 1007,3 9
16.01.2019 04:00:00 8,0 6,6 7,8 41 22 50 27 WSW 1008,1 7
16.01.2019 03:00:00 8,0 6,6 7,9 42 23 50 27 WSW 1008,7 6
16.01.2019 02:00:00 8,0 6,7 7,8 41 22 50 27 WSW 1009,0 6
16.01.2019 01:00:00 8,0 6,6 7,8 37 20 47 25 WSW 1009,6 5
16.01.2019 00:00:00 7,8 6,5 7,6 35 19 43 23 WSW 1010,2 5
15.01.2019 23:00:00 7,6 6,4 7,3 37 20 43 23 WSW 1010,7 5
15.01.2019 22:00:00 7,9 6,5 7,7 37 20 47 25 WSW 1011,3 6
15.01.2019 21:00:00 8,0 6,1 7,8 39 21 47 25 W 1011,4 8
15.01.2019 20:00:00 8,1 6,1 7,8 37 20 47 25 W 1011,7 8
15.01.2019 19:00:00 8,0 6,2 7,9 41 22 50 27 W 1011,8 7
15.01.2019 18:00:00 8,0 6,1 7,8 41 22 50 27 W 1012,0 8
15.01.2019 17:00:00 7,9 6,1 7,8 42 23 50 27 W 1012,2 7

tt = Température de l'air
td = dewpoint
tt 5cm = Température de l'air 5cm
ff = Vitesse du vent
fx = gusts
dd = Direction du vent
ppp = reduced air pressure
vv = visibility

stations d'obs. à proximité